Regional Weather Roundup
Issued by NWS

Home | Current Version | Previous Version | Graphics & Text | Print | Product List | Glossary On
Versions: 1 2 3 4 5 6 7 8 9 10 11 12 13 14 15 16 17 18 19 20 21 22 23 24 25 26 27 28 29 30 31 32 33 34 35 36 37 38 39 40 41 42 43 44 45 46 47 48 49 50
000
ASUS43 KIND 232259
RWRIN

WEATHER ROUNDUP FOR INDIANA
NATIONAL WEATHER SERVICE INDIANAPOLIS IN
700 PM EDT WED JUL 23 2014

NOTE: "FAIR" INDICATES FEW OR NO CLOUDS BELOW 12,000 FEET WITH NO
SIGNIFICANT WEATHER AND/OR OBSTRUCTIONS TO VISIBILITY.

* - STATION DOES NOT REPORT WEATHER SUCH AS PRECIPITATION OR FOG.

+ - STATION NOT QUALITY CONTROLLED BY THE NATIONAL WEATHER SERVICE.
    USE DATA WITH CAUTION...ESPECIALLY DEWPOINT AND RELATIVE
    HUMIDITY OBSERVATIONS.

INZ001>003-010>013-019-020-240000-
NORTHWEST INDIANA

CITY           SKY/WX    TMP DP  RH WIND       PRES   REMARKS
GARY /AIRPORT/ SUNNY     68  54  60 N18       30.14R
KNOX *+        SUNNY     68  55  64 N16       30.09S
MONTICELLO +   SUNNY     70  58  63 N17G24    30.06S
RENSSELAER +   SUNNY     68  57  68 N12       30.11R
VALPARAISO     SUNNY     67  49  52 N12G23    30.11S

$$

LMZ046-743>745-240000-
SOUTHERN LAKE MICHIGAN

STATION/POSITION TIME  TEMP WIND        PRES
                       AIR  DIR/SP/G
                 (UTC) (F)  (DEG/KT/KT) (MB)
MICHIGAN CITY    2200   64  350/ 30/ 36   N/A

$$

INZ004-005-014>016-021>024-240000-
NORTH CENTRAL INDIANA

CITY           SKY/WX    TMP DP  RH WIND       PRES   REMARKS
ELKHART        MOSUNNY   72  57  60 NW10G18   30.08R
GOSHEN         MOSUNNY   74  60  61 NW10      30.05S
SOUTH BEND     SUNNY     69  55  60 NW16      30.09S
WARSAW +       PTSUNNY   73  61  64 NW14      30.05R

$$

INZ006>009-017-018-025>027-240000-
NORTHEAST INDIANA

CITY           SKY/WX    TMP DP  RH WIND       PRES   REMARKS
ANGOLA *+      MOSUNNY   73  66  78 NE6       30.05S
FORT WAYNE     MOSUNNY   75  60  59 N14       30.03S

$$

INZ028-029-035-036-043>045-051>053-240000-
WEST CENTRAL INDIANA

CITY           SKY/WX    TMP DP  RH WIND       PRES   REMARKS
GREENCASTLE +  MOSUNNY   73  63  68 N12       30.03S
LAFAYETTE      SUNNY     72  55  55 N15       30.06R
TERRE HAUTE    CLOUDY    75  62  64 N12       30.04R

$$

INZ030>032-037>040-046>048-054>057-064-065-240000-
CENTRAL INDIANA

CITY           SKY/WX    TMP DP  RH WIND       PRES   REMARKS
COLUMBUS       LGT RAIN  73  72  94 N8        30.00R FOG
INDIANAPOLIS   PTSUNNY   75  63  66 N14       30.01S
-EAGLE CREEK   MOSUNNY   75  62  64 N13       30.01S
KOKOMO *+      PTSUNNY   73  61  64 N10       30.03F
MT COMFORT *+  CLOUDY    73  73 100 NE12      30.02S
SHELBYVILLE    CLOUDY    73  67  81 N9        30.01R
ZIONSVILLE +   CLOUDY    74  61  63 N9G17     30.03F

$$

INZ033-034-041-042-049-050-058-059-240000-
EAST CENTRAL INDIANA

CITY           SKY/WX    TMP DP  RH WIND       PRES   REMARKS
MUNCIE         CLOUDY    72  63  73 N10       30.03S

$$

INZ060-061-067>069-081>083-085>088-240000-
SOUTHWEST INDIANA

CITY           SKY/WX    TMP DP  RH WIND       PRES   REMARKS
EVANSVILLE     CLOUDY    78  71  79 NW6       29.99S
HUNTINGBURG *+ PTSUNNY   81  70  69 N7        29.99S

$$

INZ062-063-066-070>080-084-089>092-240000-
SOUTH CENTRAL AND SOUTHEAST INDIANA

CITY           SKY/WX    TMP DP  RH WIND       PRES   REMARKS
BLOOMINGTON    CLOUDY    73  67  81 N9        30.02R

$$



USA.gov is the U.S. government's official web portal to all federal, state and local government web resources and services.